Terminal Aerodrome Forecast
Issued by NWS Paducah, KY

Home | Current Version | Previous Version | Text Only | Print | Product List | Glossary Off
Versions: 1 2 3 4 5 6 7 8 9 10 11 12 13 14 15 16 17

000
FTUS43 KPAH 302221 AAB
TAFPAH
TAF AMD
KPAH 302221Z 3022/3118 16006KT P6SM VCSH SCT040 BKN100
     FM310000 VRB03KT P6SM SCT060 BKN150
      TEMPO 3109/3112 5SM BR
     FM311400 18005KT P6SM SCT040 BKN100=

USA.gov is the U.S. government's official web portal to all federal, state and local government web resources and services.